GW5858 Weather Reports


Display with metric or nautical units.
time (UTC)temp
F
wind
direction
speed
MPH
gust
MPH
rain 1hr
in
rain 24hr
in
rain mn
in
humidity
%
barometer
mb
20260502231509 42 327 3.0 7.0 0.00 0.00 0.00 71 1015.6
20260502230010 42 284 2.0 5.0 0.00 0.00 0.00 71 1015.4
20260502224519 42 332 2.0 7.0 0.00 0.00 0.00 70 1015.3
20260502223020 43 311 2.0 8.0 0.00 0.00 0.00 69 1015.4
20260502221518 43 267 3.0 8.0 0.00 0.00 0.00 68 1015.4
20260502220018 43 296 4.0 8.0 0.00 0.00 0.00 67 1015.4
20260502214518 43 300 3.0 13.0 0.00 0.00 0.00 66 1015.3
20260502213015 44 329 4.0 12.0 0.00 0.00 0.00 63 1015.2
20260502211514 44 329 4.0 13.0 0.00 0.00 0.00 62 1015.2
20260502210019 44 242 2.0 12.0 0.00 0.00 0.00 65 1015.3
20260502204522 43 276 5.0 12.0 0.00 0.00 0.00 67 1015.3
20260502203025 42 360 3.0 16.0 0.00 0.00 0.00 66 1015.3
20260502201523 42 360 5.0 14.0 0.00 0.00 0.00 65 1015.6
20260502200017 43 333 5.0 16.0 0.00 0.00 0.00 63 1015.5
20260502194510 43 313 5.0 12.0 0.00 0.00 0.00 60 1015.7
20260502193010 44 336 6.0 12.0 0.00 0.00 0.00 59 1015.8
20260502191520 44 299 3.0 12.0 0.00 0.00 0.00 59 1015.8
20260502190005 44 5 5.0 13.0 0.00 0.00 0.00 60 1015.9
20260502184525 45 217 4.0 11.0 0.00 0.01 0.00 58 1016.0
20260502183018 46 341 5.0 14.0 0.00 0.01 0.00 56 1015.9
20260502181515 46 320 5.0 16.0 0.00 0.01 0.00 56 1015.8
20260502163017 47 322 4.0 10.0 0.00 0.01 0.00 48 1015.7
20260502161513 47 257 5.0 10.0 0.00 0.02 0.00 49 1015.6
20260502151520 49 300 3.0 10.0 0.00 0.03 0.00 50 1015.7
20260502123014 42 323 3.0 7.0 0.00 0.03 0.00 64 1016.3
20260502121511 41 266 2.0 4.0 0.00 0.03 0.00 65 1016.3
20260502114520 39 268 1.0 5.0 0.00 0.03 0.00 71 1016.3
20260502113020 38 311 1.0 7.0 0.00 0.03 0.00 73 1016.2
20260502111519 37 288 2.0 3.0 0.00 0.03 0.00 76 1016.2
20260502110023 35 294 0.0 2.0 0.00 0.03 0.00 83 1016.2
20260502104514 33 294 0.0 2.0 0.00 0.03 0.00 86 1016.0
20260502103012 32 294 0.0 2.0 0.00 0.03 0.00 86 1015.9
20260502101508 32 294 0.0 2.0 0.00 0.03 0.00 86 1015.8
20260502091519 33 339 0.0 2.0 0.00 0.03 0.00 82 1015.3
20260502071510 35 21 2.0 6.0 0.00 0.03 0.00 78 1014.7
20260502070009 35 12 0.0 4.0 0.00 0.03 0.00 78 1014.9
20260502064517 35 336 1.0 5.0 0.00 0.03 0.00 79 1015.0
20260502063022 36 321 0.0 2.0 0.00 0.03 0.00 78 1015.0
20260502061516 36 320 0.0 3.0 0.00 0.03 0.00 77 1015.1
20260502060016 36 352 1.0 5.0 0.00 0.03 0.00 76 1015.1
20260502054516 37 321 0.0 4.0 0.00 0.03 0.00 76 1015.1
20260502053012 38 290 2.0 6.0 0.00 0.03 0.00 74 1015.2
20260502051519 38 320 1.0 4.0 0.00 0.03 0.00 74 1015.1
20260502050017 38 16 2.0 7.0 0.00 0.03 0.00 73 1015.0
20260502044519 39 30 4.0 8.0 0.00 0.03 0.00 73 1014.7
20260502043017 40 360 2.0 6.0 0.00 0.03 0.00 74 1014.5
20260502041517 40 5 1.0 5.0 0.00 0.03 0.00 78 1014.2
20260502040029 41 344 1.0 3.0 0.00 0.03 0.00 80 1014.2
20260502034512 42 336 1.0 3.0 0.00 0.03 0.03 85 1014.3
20260502033018 42 290 1.0 5.0 0.00 0.03 0.03 84 1014.3
20260502031515 42 315 1.0 4.0 0.00 0.03 0.03 83 1014.2
20260502030017 42 360 2.0 6.0 0.00 0.03 0.03 81 1014.2
20260502024533 42 283 1.0 7.0 0.00 0.03 0.03 80 1014.3
20260502023016 41 285 3.0 6.0 0.00 0.03 0.03 80 1014.4
20260502021514 42 299 2.0 7.0 0.00 0.03 0.03 79 1014.4
20260502020013 42 297 2.0 5.0 0.00 0.03 0.03 81 1014.3
20260502014523 42 241 2.0 4.0 0.00 0.03 0.03 82 1014.2
20260502013004 42 294 1.0 4.0 0.00 0.03 0.03 84 1014.1
20260502011518 42 313 1.0 4.0 0.00 0.03 0.03 84 1013.9
20260502010017 42 319 2.0 6.0 0.00 0.03 0.03 83 1013.8
20260502004517 42 321 3.0 10.0 0.00 0.03 0.03 84 1013.5
20260502003018 42 346 3.0 8.0 0.00 0.03 0.03 83 1013.4
20260502001512 43 350 2.0 9.0 0.00 0.03 0.03 83 1013.0
20260502000010 44 309 3.0 8.0 0.00 0.03 0.03 82 1012.9
20260501234511 44 352 3.0 5.0 0.00 0.04 0.03 80 1012.7
20260501233016 45 281 2.0 6.0 0.00 0.04 0.03 77 1012.6